Vertical_Velocity
0 -1 -0 1 2 1 2 2 0 1 2 4 7 5 4 -1 -3 -0 3 7 4 15
0 -1 1 1 -1 1 1 5 4 4 -6 1 0 5 7 3 2 1 4 4 3 5
1 2 2 3 2 2 1 1 -0 2 4 2 1 3 3 4 8 5 7 9 9 -0
-0 1 -0 2 -0 1 4 5 7 5 5 3 5 5 9 5 5 3 4 7 9 8
0 -1 -1 3 1 1 -1 -1 1 5 4 3 6 4 4 8 7 5 2 6 9 4
1 -0 -1 2 -0 -2 -1 -1 -3 2 1 5 -2 -2 3 3 8 1 1 3 3 6
0 1 1 1 -1 -1 -3 -2 -1 2 4 -1 -14 -2 -8 5 -3 4 -1 -4 0 2
1 -0 0 -2 -5 -2 -6 -4 -1 -0 -4 -2 1 -1 1 -3 4 3 -0 -2 0 0
0 -3 -4 -2 -2 -1 -4 -5 -5 -2 -4 -3 -3 -6 -6 -3 4 -3 -3 1 2 3
-0 -2 -2 -2 -2 -0 -1 1 1 -3 -2 -1 -2 1 2 1 -1 4 5 2 -1 -1
-2 -2 -3 -2 -1 -2 -3 -6 -6 1 0 -1 -4 -2 -3 -5 -5 9 2 6 4 2
-2 -2 -4 -2 -0 -0 -1 -0 0 -1 -2 -2 0 2 2 3 1 4 8 2 0 3
-2 -4 -5 -4 -2 -1 -4 -3 -5 -3 -2 -2 -3 -2 -3 -3 -0 -1 1 0 -1 -4
-3 -4 -3 -3 -3 -2 -3 -2 -1 -0 -1 -2 -2 -2 -1 1 -3 -5 -2 -1 -1 1
Height
3068 3067 3068 3069 3069 3069 3070 3071 3070 3071 3072 3073 3073 3073 3073 3073 3073 3074 3076 3078 3079 3082
3058 3058 3059 3059 3060 3060 3060 3061 3061 3059 3060 3062 3062 3062 3062 3063 3063 3064 3066 3066 3067 3068
3048 3049 3049 3049 3049 3050 3050 3052 3050 3050 3050 3050 3052 3052 3052 3052 3052 3053 3055 3055 3057 3057
3040 3040 3040 3040 3040 3040 3040 3040 3040 3040 3040 3040 3040 3041 3042 3041 3041 3042 3043 3045 3046 3047
3034 3032 3031 3030 3030 3029 3029 3029 3029 3030 3030 3032 3032 3032 3032 3032 3032 3031 3032 3034 3035 3036
3026 3025 3023 3022 3021 3020 3019 3020 3021 3021 3021 3021 3022 3023 3023 3023 3023 3022 3023 3025 3026 3028
3018 3017 3016 3015 3015 3015 3014 3014 3014 3014 3014 3013 3011 3014 3015 3015 3015 3013 3013 3015 3017 3018
3012 3011 3011 3011 3011 3010 3010 3008 3008 3007 3007 3007 3006 3007 3007 3007 3006 3005 3006 3006 3008 3009
3008 3009 3009 3007 3007 3005 3005 3005 3004 3002 3001 3000 2996 3000 3001 3000 2999 2998 3000 3000 3001 3002
3007 3006 3005 3004 3002 3002 3001 2999 2999 2998 2997 2996 2995 2995 2995 2993 2992 2993 2993 2993 2994 2995
3008 3005 3002 2999 2999 2998 2997 2997 2996 2994 2994 2992 2991 2990 2989 2988 2987 2985 2987 2986 2988 2988
3004 3001 2999 2998 2997 2996 2995 2995 2994 2993 2991 2989 2987 2985 2983 2984 2983 2982 2982 2983 2984 2984
3004 3002 3000 2998 2995 2995 2995 2995 2993 2992 2989 2988 2987 2986 2986 2984 2984 2984 2982 2984 2982 2981
3007 3005 3003 3001 2999 2998 2997 2996 2994 2993 2992 2991 2990 2988 2987 2986 2985 2983 2982 2980 2979 2977